Find Starlink 30229

NORAD ID: 57461 Int'l Des: 2023-107 Owner: SPXS Country: US Constellation: starlink operational
LEOCIRCULAR

当前视图

正在加载3D地球...

About Starlink 30229

Starlink 30229 (NORAD 57461) is a starlink constellation satellite (v2 mini) launched Jul 28, 2023 by SPXS of US. It operates in LEO, CIRCULAR orbit with a mass of 730.00 kg.

关于 Starlink 30229

正在加载描述...

即将过境

Passes for default location (London). Set your location on the main map for personalized predictions.

高度历史

Loading altitude history...

两行轨道根数

1 57461U 23107E 26175.09541518 -.00000992 00000-0 -26540-4 0 9993
2 57461 43.0019 102.5863 0000854 274.0459 86.0295 15.27590250161335
Epoch: Jun 24, 2026 • Age: 15 hours

当前状态

高度 490.6 km
速度 7.62 km/s
星下点 -29.79°S, 142.78°E
发射日期 Jul 28, 2023
运行时间 2.9 years
类型 internet

技术详情

分类 Payload
质量 730.00 kg
干质量 700.00 kg
总质量 730.00 kg
长度 0.30 m
直径 4.10 m
跨度 29.00 m
形状 Box + pan
制造商 SPXS
平台类型 Starlink V2M
阶段状态 In Orbit
所有者/国家 SPXS/US

Most Searched